{"data":{"norad_id":60123,"epoch":"2026-09-21T12:17:14.665056Z","epoch_age_seconds":94283,"freshness":"FRESH","line1":"1 60123U 24118L   26264.51197529 -.00000321  00000+0  22098-5 0  9999","line2":"2 60123  53.1588 335.6148 0001042  95.5735 264.5402 15.69689583128751","mean_motion":15.69689583,"eccentricity":0.0001042,"inclination_deg":53.1588,"raan_deg":335.6148,"arg_perigee_deg":95.5735,"mean_anomaly_deg":264.5402,"bstar":2.2098e-6,"rev_number":12875,"period_min":91.737883438575,"perigee_km":359.08308520104,"apogee_km":360.48726818267,"semimajor_km":6737.9221766919,"source":"CELESTRAK","updated_at":"2026-09-22T09:00:49.156561Z"}}